Probability
0 0 0 0 0 0 0 0 0 0 0 0 0 0 0 0 0 0 1 3 3 3 3 5 6 6 5 5 5 5 8 10 11 10 10 8 5 4 3 1 0 0 1 0 0 1 0 0 0
0 0 0 0 0 0 0 0 0 0 0 0 0 0 0 0 0 1 2 3 3 3 3 4 5 4 4 5 5 5 6 8 9 10 9 8 6 4 3 2 1 1 1 1 1 1 1 0 0
0 0 0 0 0 0 0 0 0 0 0 0 0 0 0 0 1 2 3 3 3 3 3 3 4 3 4 5 6 5 5 5 6 8 9 8 6 5 4 3 1 2 3 2 1 2 2 1 1
0 0 0 0 0 0 0 0 0 0 0 0 0 0 0 0 2 3 3 3 3 3 3 4 4 4 4 5 7 7 6 4 4 6 7 7 7 7 5 4 3 3 4 3 2 2 2 2 2
0 0 0 0 0 0 0 0 0 0 0 0 0 0 0 0 1 3 3 3 3 3 3 5 7 6 6 6 7 8 7 6 5 5 6 6 7 8 6 5 5 5 4 2 2 2 2 3 3
0 0 0 0 0 0 0 0 0 0 0 0 0 0 0 0 1 3 4 4 3 3 4 6 8 8 6 6 6 7 7 7 6 6 6 5 4 6 6 6 5 5 4 3 3 3 4 3 3
0 0 0 0 0 0 0 0 0 0 0 0 0 0 0 0 1 3 5 5 4 3 4 7 8 7 6 6 7 6 5 4 4 5 4 3 2 3 5 5 4 4 4 3 3 5 6 5 4
0 0 0 0 0 0 0 0 0 0 0 0 0 0 0 0 1 4 6 6 5 4 5 6 7 6 6 6 7 5 2 1 1 1 1 1 1 1 3 4 3 3 4 3 3 4 6 5 4
0 0 0 0 0 0 0 0 0 0 0 1 1 0 1 2 3 5 7 7 7 6 6 6 6 6 6 6 6 4 1 0 0 0 0 0 0 0 2 3 3 3 3 3 2 3 4 4 4
0 0 0 0 0 0 0 0 0 0 1 2 2 2 3 5 5 5 7 8 8 8 7 7 6 7 7 7 6 4 1 0 0 0 0 0 0 1 2 3 3 2 2 3 3 3 3 3 2
0 0 0 0 0 0 0 0 0 0 1 2 3 4 6 8 6 4 5 6 7 8 8 8 7 7 7 7 6 5 3 1 1 0 0 0 1 2 3 3 3 2 2 3 3 2 2 1 1
0 0 0 0 0 0 0 0 0 0 0 1 3 5 7 7 5 2 3 5 7 8 9 9 8 7 7 7 7 6 5 4 3 1 0 0 1 2 3 3 3 3 3 3 3 2 1 0 0
0 0 0 0 0 0 0 0 0 0 0 0 1 4 5 6 5 3 3 4 6 8 9 9 8 7 7 7 7 6 6 6 4 2 1 0 1 2 3 3 3 3 3 3 2 2 1 0 0
0 0 0 0 0 0 0 0 0 0 0 1 1 3 5 6 6 5 5 4 4 6 8 8 7 7 6 6 6 6 6 6 4 2 1 0 0 1 1 3 3 3 2 1 1 2 1 0 0
0 0 0 0 0 0 0 0 0 0 1 2 2 2 3 5 6 6 4 3 1 2 5 7 7 6 6 6 6 6 6 6 4 2 1 0 0 0 1 2 3 3 1 0 0 1 1 1 1
0 0 0 0 0 0 0 0 0 0 1 2 2 1 1 3 4 3 2 1 0 1 3 5 6 6 6 6 6 6 6 6 4 2 1 0 0 0 0 1 2 2 1 0 0 0 1 2 2
0 0 0 0 0 0 0 0 0 0 0 1 1 1 0 1 1 1 0 0 0 0 2 3 5 6 7 7 7 6 6 6 4 2 1 0 0 0 0 0 1 1 0 0 0 0 0 1 2
0 0 0 0 0 0 0 0 0 0 0 0 0 0 0 0 0 0 0 0 0 0 1 3 4 5 7 8 7 7 6 5 4 3 1 0 0 0 0 0 0 0 0 0 0 0 0 0 1
0 0 0 0 0 0 0 0 0 0 0 0 0 0 0 0 0 0 0 0 0 0 1 2 3 4 6 8 8 7 6 5 4 4 2 1 0 0 0 0 0 0 0 0 0 0 0 0 0
0 0 0 0 0 0 0 0 0 0 0 0 0 0 0 0 0 0 0 0 0 0 1 2 3 4 5 7 7 6 5 5 5 5 3 1 0 0 0 0 0 0 0 0 0 0 0 0 0
0 0 0 0 0 0 0 0 0 0 0 0 0 0 0 0 0 0 0 0 0 0 1 2 3 3 4 5 5 4 4 5 6 6 5 2 1 0 0 0 0 0 0 0 0 0 0 0 0
0 0 0 0 0 0 0 0 0 0 0 0 0 0 0 0 0 0 0 0 0 0 0 1 2 3 3 4 4 3 3 4 5 6 5 3 2 1 0 0 0 0 0 0 0 0 1 1 1
0 0 0 0 0 0 0 0 0 0 0 0 0 0 0 0 0 0 0 0 0 0 0 0 1 2 3 3 3 3 3 3 4 4 4 3 2 1 0 0 0 0 0 0 0 0 1 2 2
0 0 0 0 0 0 0 0 0 0 0 0 0 0 0 0 0 0 0 0 0 0 0 0 0 1 3 3 3 3 3 3 3 3 3 3 1 0 0 0 0 0 0 0 0 0 0 1 1
0 0 0 0 0 0 0 0 0 0 0 0 0 0 0 0 0 0 0 0 0 0 0 0 0 1 2 3 3 3 3 3 3 3 3 2 1 0 0 0 0 0 0 0 0 0 0 0 0
0 0 0 0 0 0 0 0 0 0 0 0 0 0 0 0 0 0 0 0 0 0 0 0 0 0 1 2 3 3 3 3 3 3 3 2 1 0 0 0 0 0 0 0 0 0 0 0 0
0 0 0 0 0 0 0 0 0 0 0 0 0 0 0 0 0 0 0 0 0 0 0 0 0 0 0 1 3 3 3 3 3 3 1 1 0 0 0 0 0 0 0 0 0 0 0 0 0
0 0 0 0 0 0 0 0 0 0 0 0 0 0 0 0 0 0 0 0 0 0 0 0 0 0 0 1 2 3 3 3 3 2 1 0 0 0 0 0 0 0 0 0 0 0 0 0 0
0 0 0 0 0 0 0 0 0 0 0 0 0 0 0 0 0 0 0 0 0 0 0 0 0 0 0 1 2 3 3 3 2 2 1 0 0 0 0 0 0 0 0 0 0 0 0 0 0
0 0 0 0 0 0 0 0 0 0 0 0 0 0 0 0 0 0 0 0 0 0 0 0 0 0 0 0 1 3 3 2 1 1 0 0 0 0 0 0 0 0 0 0 0 0 0 0 0
Wind_Speed
8 4 2 4 6 5 2 3 2 1 0 0 1 3 5 4 3 3 0 2 4 5 4 5 9 9 9 9 9 9 9 9 10 10 10 10 10 10 10 10 10 10 10 10 11 11 11 12 12
2 2 5 6 5 2 4 4 3 2 1 2 2 3 3 2 1 2 2 2 5 6 4 4 9 9 8 9 8 8 8 8 9 9 9 9 9 9 9 9 9 9 9 9 10 10 11 11 11
2 4 5 5 4 5 4 3 3 1 1 1 2 3 2 1 1 1 1 4 5 4 3 5 9 9 8 8 8 8 8 8 9 9 9 9 8 8 8 8 8 8 8 9 9 9 10 10 10
3 5 5 4 3 4 3 1 1 0 2 3 3 3 1 2 1 1 3 5 6 4 3 4 9 8 8 8 7 7 7 8 8 8 8 8 8 8 8 7 8 8 8 8 8 9 9 9 9
4 5 4 0 4 3 2 2 0 1 0 1 2 3 1 4 2 3 5 6 6 4 2 3 7 8 7 7 7 7 6 7 7 8 7 7 7 7 7 7 7 7 7 7 7 7 8 8 8
5 4 3 4 4 3 2 2 1 1 0 1 2 2 1 2 3 3 5 5 5 4 3 3 6 7 7 7 6 6 6 6 6 6 7 6 6 6 6 6 6 6 6 6 6 6 7 7 7
4 4 4 4 3 3 2 1 2 1 0 1 1 3 0 1 2 4 5 5 5 4 4 3 3 4 5 6 6 6 6 6 6 6 5 5 5 5 6 6 6 5 5 5 5 6 6 6 6
4 5 3 3 4 4 1 1 1 2 2 1 2 4 3 1 3 5 6 5 5 4 4 3 3 3 3 3 5 5 5 5 5 5 5 5 4 4 4 4 5 5 4 4 5 4 5 5 5
3 4 4 5 5 3 0 1 1 1 2 2 2 1 0 5 6 6 5 4 3 3 3 3 3 3 3 2 4 4 4 4 4 4 5 4 2 2 2 3 3 3 4 4 3 3 3 4 4
4 4 6 3 3 2 1 1 1 2 2 2 3 4 4 6 6 7 5 4 3 1 1 2 2 2 2 2 2 2 2 2 2 2 2 2 2 1 2 2 2 2 2 2 3 3 3 3 2
3 4 3 1 1 1 1 0 1 4 1 2 3 2 4 5 5 5 4 3 2 2 1 1 2 2 2 2 2 1 1 1 2 2 2 2 2 1 1 1 1 1 1 1 1 1 1 1 1
2 1 1 1 1 1 1 1 1 1 2 0 2 5 6 6 4 4 4 2 1 1 1 1 1 2 2 2 1 1 1 1 1 1 2 2 1 1 1 1 1 1 1 1 1 1 1 1 1
2 1 0 1 1 1 2 0 1 1 1 2 4 5 5 5 3 2 2 2 1 1 0 0 1 2 1 1 1 1 1 1 1 1 1 2 2 1 1 1 1 1 1 1 1 1 1 1 1
2 1 0 1 0 1 1 1 1 1 1 4 4 4 3 3 3 2 2 1 1 0 0 0 1 1 1 1 1 1 1 1 1 1 1 2 2 1 1 1 1 1 1 1 1 2 2 2 1
2 1 2 1 0 0 2 2 2 2 3 3 2 2 2 1 2 2 1 1 0 1 0 1 1 1 1 1 1 1 1 1 1 1 1 1 1 2 2 1 1 1 1 1 1 1 1 2 1
3 2 1 2 1 0 2 6 3 1 3 3 2 1 1 0 1 1 1 1 1 2 1 0 1 1 1 1 1 1 1 1 1 1 1 1 1 2 2 2 1 1 1 1 1 1 1 1 1
2 2 3 3 1 1 3 6 3 1 3 3 2 2 1 0 1 1 1 1 1 1 2 1 1 1 1 1 1 1 1 1 0 1 1 1 1 1 2 2 1 1 1 1 1 1 1 1 1
4 3 2 4 2 2 4 6 5 3 4 4 3 2 2 1 2 1 1 1 1 1 2 2 2 1 1 0 0 1 1 0 0 1 1 1 1 1 1 1 1 2 1 1 1 1 1 1 1
4 3 3 3 1 1 5 7 7 3 4 5 5 4 3 3 2 1 1 1 2 2 2 2 2 2 1 0 0 1 1 1 1 1 1 1 1 1 1 1 1 2 2 2 2 1 1 1 0
2 3 2 2 1 1 3 8 6 5 6 7 7 6 5 3 2 1 1 1 1 1 1 1 2 2 2 1 1 1 1 1 1 1 1 1 1 1 1 1 1 2 2 2 2 1 1 0 1
3 4 3 2 2 2 3 7 5 4 3 4 5 5 4 5 4 3 1 1 0 1 1 1 1 1 2 2 1 1 1 1 1 1 1 1 1 1 1 2 2 2 2 3 3 3 3 2 1
4 3 3 2 1 3 0 6 6 4 4 5 6 5 5 4 4 3 2 1 1 1 1 1 1 1 1 1 1 0 0 1 1 1 1 2 1 1 1 2 2 3 2 3 3 3 2 3 2
3 2 2 2 2 2 1 3 8 1 5 7 7 6 6 5 4 4 3 3 2 1 1 1 2 2 2 2 1 1 1 1 1 1 1 2 1 1 2 2 2 2 2 3 3 3 3 3 3
4 4 4 3 2 4 5 5 9 5 7 5 4 4 4 4 3 2 2 1 0 1 1 1 1 2 2 2 1 1 1 1 0 1 1 2 1 1 2 2 2 2 2 3 3 4 4 3 3
3 4 2 2 1 6 2 5 10 5 5 5 5 4 3 2 2 2 1 1 0 1 1 1 1 2 2 2 2 1 1 1 2 2 2 2 2 2 2 2 2 2 2 2 3 3 3 4 4
4 5 6 5 5 4 2 7 8 4 3 3 3 3 2 2 1 2 2 1 1 1 0 1 1 2 2 2 2 2 1 1 1 2 2 2 2 3 3 2 2 2 2 2 2 2 3 3 3
5 4 3 5 1 2 6 7 8 1 2 2 1 1 2 2 2 1 1 1 1 1 1 1 1 1 2 3 2 2 2 1 2 2 1 2 2 2 3 2 3 3 2 2 2 2 2 2 3
3 6 4 4 3 4 5 5 6 4 4 3 2 2 3 2 1 1 1 1 1 1 1 1 1 1 1 2 2 2 2 2 2 1 2 2 2 2 2 2 2 3 2 2 2 2 2 3 3
3 3 4 3 3 4 4 8 4 5 3 3 3 3 2 2 1 1 1 1 1 2 2 2 2 2 2 2 2 2 2 2 2 2 2 2 2 2 2 2 2 2 2 2 3 3 3 3 3
2 5 6 5 4 4 3 9 3 2 2 2 2 2 2 1 1 0 1 1 1 2 2 2 2 2 2 2 2 2 2 2 2 2 3 2 2 2 2 2 2 2 2 2 3 3 3 3 4
Wind_Direction
341 352 54 55 57 54 234 252 235 263 213 61 109 114 133 135 148 165 200 133 133 140 151 152 133 128 127 125 122 119 119 120 119 117 117 116 115 113 110 108 107 105 105 104 103 101 101 98 95
338 7 52 60 94 139 257 245 233 225 179 122 73 83 84 75 56 103 116 131 129 134 139 146 134 128 125 124 124 124 124 123 122 121 119 119 119 117 115 114 111 107 106 106 105 104 104 102 100
5 48 78 80 129 183 215 221 212 312 25 97 78 64 98 96 87 148 160 137 120 119 127 146 133 130 126 124 126 125 128 129 126 123 122 122 121 121 118 116 115 110 106 106 106 104 105 104 104
61 47 57 87 197 219 225 239 176 89 25 45 97 71 50 8 318 172 129 127 120 113 119 140 131 129 125 122 123 123 124 127 130 127 123 123 125 122 120 119 118 116 113 112 110 109 107 106 105
59 77 76 119 230 244 257 270 195 60 56 28 96 107 37 357 28 99 122 123 125 117 108 128 128 126 121 121 121 118 118 121 126 131 130 128 125 124 121 119 120 121 119 117 115 112 111 109 106
61 76 118 214 234 254 269 279 113 44 17 48 92 111 86 9 60 98 112 112 113 115 103 112 121 118 117 118 117 114 110 113 113 122 126 127 127 125 121 123 120 120 122 121 119 115 110 110 110
110 119 176 200 220 244 252 212 143 165 224 258 149 116 93 14 50 100 100 99 94 94 88 87 106 108 109 109 111 108 107 109 111 109 112 116 116 124 123 122 127 125 119 116 119 120 118 115 109
123 118 162 203 204 237 259 152 139 167 215 323 109 138 191 193 101 93 90 85 86 80 74 68 72 80 90 101 101 100 98 101 103 103 95 96 105 111 116 115 122 127 123 118 119 118 124 119 112
96 100 197 207 197 225 209 100 12 66 98 41 45 66 48 119 113 98 91 79 81 82 70 68 70 70 71 88 93 94 93 89 92 97 95 86 89 100 102 106 111 125 131 126 130 123 114 107 104
103 168 217 209 191 189 187 146 170 95 64 26 31 30 68 101 113 115 116 122 122 120 95 77 77 73 75 85 86 87 85 88 83 90 98 95 96 85 83 83 97 118 126 126 126 127 105 84 74
143 186 212 229 234 184 162 105 3 128 167 212 181 148 118 107 109 125 132 140 159 163 119 93 90 84 88 83 91 85 81 90 84 86 100 108 98 89 81 88 71 68 77 92 91 96 84 100 104
135 225 208 267 267 159 169 137 61 124 222 211 149 145 134 129 132 148 149 145 136 121 119 96 114 100 96 94 104 105 101 109 108 107 113 119 119 110 111 118 133 110 101 124 116 119 108 119 133
168 210 254 296 54 82 95 115 148 260 290 77 96 104 128 139 136 128 112 112 109 127 125 106 132 131 120 109 116 112 141 147 146 141 144 142 149 160 159 166 155 147 136 141 157 163 162 181 186
182 156 292 334 26 43 111 278 142 242 112 88 96 115 136 145 144 113 87 75 64 186 206 200 165 156 137 136 154 156 163 159 155 162 176 167 167 174 174 172 175 185 187 193 191 188 182 200 204
119 95 349 326 210 216 90 313 225 221 127 107 114 133 128 126 124 137 162 152 311 310 209 158 163 147 162 166 187 175 180 177 169 177 176 178 180 182 182 184 193 210 204 194 187 194 187 196 212
77 83 268 286 164 242 148 248 246 193 139 154 168 163 153 69 94 81 79 61 21 2 359 323 122 138 175 185 199 199 184 176 179 189 183 197 204 192 179 183 201 198 176 178 180 180 202 205 211
64 190 230 278 208 132 183 242 256 197 168 191 199 199 197 299 345 1 21 51 36 23 5 9 65 124 179 185 173 173 150 156 196 201 199 217 213 204 187 188 200 172 163 172 195 183 188 208 219
201 198 214 231 254 172 220 249 265 227 198 206 210 219 226 246 269 296 357 30 44 35 31 22 30 36 54 104 109 85 66 298 242 218 232 224 217 212 190 190 190 174 171 181 192 193 176 197 210
165 177 220 242 284 209 235 256 263 239 210 218 223 223 232 251 277 325 17 32 48 32 33 27 18 4 34 23 213 206 240 257 260 255 274 256 237 214 185 189 188 189 193 199 191 179 168 184 130
168 195 229 291 339 231 267 270 263 225 219 214 215 220 223 239 279 287 316 31 53 17 9 13 7 352 352 344 297 234 230 229 239 276 295 273 248 225 204 185 198 205 194 185 188 175 168 191 149
206 202 213 242 342 0 322 289 255 242 228 228 225 222 224 217 226 242 247 268 7 341 322 326 331 345 348 351 22 23 34 30 349 313 304 314 297 252 223 211 206 211 196 196 202 198 187 201 228
227 207 191 192 197 282 186 279 270 237 245 237 233 225 227 230 228 233 238 246 248 277 316 328 325 345 353 8 29 50 202 261 272 290 295 312 305 294 268 234 213 213 210 207 208 205 207 185 206
188 131 138 154 165 285 257 245 279 233 244 243 232 226 227 225 220 223 231 232 236 264 326 337 340 351 0 15 355 267 255 243 289 323 317 321 305 288 282 265 233 226 222 217 214 210 213 204 201
137 88 62 55 80 255 223 205 272 231 228 243 235 229 230 228 227 235 241 221 309 2 13 9 7 351 354 2 352 305 245 241 322 320 306 307 304 288 272 270 252 244 241 227 219 214 212 216 215
121 112 49 355 312 248 212 217 252 248 236 232 232 231 231 223 217 226 238 253 323 7 7 1 10 346 344 346 334 307 269 234 236 258 267 295 300 286 274 263 251 248 250 250 228 213 214 214 213
177 154 166 197 223 272 258 236 254 259 268 262 246 236 229 231 229 231 230 233 251 279 331 356 357 344 344 342 332 322 307 290 274 274 275 275 281 281 278 259 252 250 247 251 240 229 225 219 213
152 183 157 132 135 269 261 275 296 268 308 316 301 293 259 253 247 246 266 269 251 261 279 289 334 350 342 337 334 323 314 299 291 297 295 290 287 294 293 272 251 244 238 236 228 230 237 231 223
146 142 121 146 172 247 274 261 252 261 262 284 300 297 290 294 306 320 349 352 335 313 312 336 348 323 320 330 326 325 316 308 301 307 306 301 298 297 294 293 268 246 236 230 227 230 236 236 237
146 145 142 141 163 177 253 265 230 221 226 242 269 277 271 280 297 319 345 356 355 359 0 3 359 352 345 336 328 327 325 329 327 313 303 301 301 302 293 284 280 261 242 228 224 235 235 237 245
196 180 158 168 214 191 206 267 283 221 241 251 276 296 295 275 278 322 7 2 0 356 357 1 355 350 337 331 337 334 330 338 336 324 319 313 301 298 295 291 284 277 266 244 232 238 243 239 244